Weather History for Safford, AZ

Change the Weather History Date:

Monday, June 9, 2014

  Actual Average Record
Temperature  
Mean Temperature 86 °F -  
Max Temperature 102 °F 94 °F 109 °F (1955)
Min Temperature 69 °F 57 °F 44 °F (1950)
Cooling Degree Days 20    
Growing Degree Days 36 (Base 50)    
Moisture  
Dew Point 17 °F    
Average Humidity 10    
Maximum Humidity 24    
Minimum Humidity 4    
Precipitation  
Precipitation 0.00 in - - ()
Sea Level Pressure  
Sea Level Pressure 29.67 in    
Wind  
Wind Speed 9 mph (NW)    
Max Wind Speed 18 mph    
Max Gust Speed 28 mph    
Visibility 10 miles    
Events      
Averages and records for this station are not official NWS values.
T = Trace of Precipitation, MM = Missing Value Source: NWS Daily Summary

Daily Weather History Graph

Daily Weather History Graph

Search for Another Location

Airport:

Trip Planner

Search our weather history database for the weather conditions in past years. The results will help you decide how hot, cold, wet, or windy it might be!

Date:

Astronomy

Jun. 09, 2014 Rise Set
Actual Time 5:09 AM MST 7:26 PM MST
Civil Twilight 4:41 AM MST 7:54 PM MST
Nautical Twilight 4:06 AM MST 8:29 PM MST
Astronomical Twilight 3:28 AM MST 9:07 PM MST
Moon 4:00 PM MST (6/9) 2:27 AM MST (6/9)
Length of Visible Light 15h 13m
Length of Day
14h 16m
Waxing Gibbous, 86% of the Moon is Illuminated
Jun 9
Waxing Gibbous
Jun 12
Full
Jun 19
Last Quarter
Jun 27
New
Jul 5
First Quarter

Hourly Weather History & Observations

Time (MST) Temp. Dew Point Humidity Pressure Visibility Wind Dir Wind Speed Gust Speed Precip Events Conditions
12:51 AM 81.0 °F 34.0 °F 18% 29.65 in 10.0 mi NNW 9.2 mph - N/A   Clear
1:51 AM 77.0 °F 30.0 °F 18% 29.65 in 10.0 mi NW 10.4 mph - N/A   Clear
2:51 AM 73.0 °F 28.9 °F 20% 29.67 in 10.0 mi NW 5.8 mph - N/A   Clear
3:51 AM 77.0 °F 28.0 °F 17% 29.67 in 10.0 mi North 10.4 mph - N/A   Clear
4:51 AM 73.0 °F 28.0 °F 19% 29.70 in 10.0 mi NW 9.2 mph - N/A   Clear
5:51 AM 69.1 °F 30.9 °F 24% 29.74 in 10.0 mi South 5.8 mph - N/A   Clear
6:51 AM 75.9 °F 30.0 °F 19% 29.75 in 10.0 mi West 4.6 mph - N/A   Clear
7:51 AM 80.1 °F 28.9 °F 15% 29.77 in 10.0 mi South 3.5 mph - N/A   Clear
8:51 AM 84.9 °F 27.0 °F 12% 29.77 in 10.0 mi Variable 4.6 mph - N/A   Clear
9:51 AM 91.9 °F 18.0 °F 7% 29.75 in 10.0 mi NNW 3.5 mph - N/A   Clear
10:51 AM 95.0 °F 16.0 °F 6% 29.73 in 10.0 mi Variable 3.5 mph - N/A   Clear
11:51 AM 96.1 °F 17.1 °F 6% 29.71 in 10.0 mi North - - N/A   Clear
1:51 PM 102.9 °F 7.0 °F 4% 29.65 in 10.0 mi WNW 15.0 mph 27.6 mph N/A   Mostly Cloudy
2:51 PM 102.9 °F 3.9 °F 4% 29.63 in 10.0 mi WNW 18.4 mph 27.6 mph N/A   Overcast
3:51 PM 102.9 °F 3.0 °F 4% 29.60 in 10.0 mi WNW 18.4 mph 25.3 mph N/A   Mostly Cloudy
4:51 PM 102.9 °F 3.0 °F 4% 29.59 in 10.0 mi NW 16.1 mph 20.7 mph N/A   Mostly Cloudy
5:51 PM 100.9 °F 5.0 °F 4% 29.60 in 10.0 mi NNW 11.5 mph 19.6 mph N/A   Overcast
6:51 PM 98.1 °F 8.1 °F 4% 29.59 in 10.0 mi WNW 15.0 mph - N/A   Mostly Cloudy
7:51 PM 90.0 °F 10.0 °F 5% 29.61 in 10.0 mi NW 9.2 mph - N/A   Mostly Cloudy
8:51 PM 87.1 °F 9.0 °F 5% 29.63 in 10.0 mi NNW 9.2 mph - N/A   Scattered Clouds
9:51 PM 86.0 °F 10.9 °F 6% 29.64 in 10.0 mi North 9.2 mph - N/A   Scattered Clouds
10:51 PM 82.9 °F 6.1 °F 5% 29.65 in 10.0 mi North 6.9 mph - N/A   Clear
11:51 PM 77.0 °F 7.0 °F 7% 29.66 in 10.0 mi NW 8.1 mph - N/A   Clear